Location: ????????
(37.6846°N, 24.0673°E)
Time: 13:40:23
(UTC+00:00)

Cosmos 1242 Rocket - Pass Details

Date: 14 July 2020
Orbit: 447 x 487 km, 81.2° (Epoch: 03 August)

Event Time Altitude Azimuth Distance (km) Brightness Sun altitude
Rises 01:44:31 0° 347° (NNW) 2,460 6.6 -15.1°
Reaches altitude 10° 01:46:36 10° 344° (NNW) 1,586 5.5 -14.8°
Maximum altitude 01:50:01 61° 263° (W) 518 2.4 -14.3°
Enters shadow 01:52:24 18° 187° (S) 1,172 4.1 -13.9°
